sat.trackr.live / text

‹ back to catalog

STARLINK-6229

NORAD 57093 · 2023-088AX

PAYLOAD ACTIVE UNKNOWN

§ Identity

Operator
Country
US
Launch date
2023-06-22
Launch site
AFWTR
Launch vehicle
Mass (kg)
RCS (m²)

Purposes: comms

External: N2YO · Heavens-Above · Gunter

§ Orbital elements

Epoch: 2026-05-24T22:43:55.073280Z

Period
94.27 min
Inclination
43.0020°
Eccentricity
0.0001361
Mean motion
15.27595396 rev/d
Perigee alt
482.1 km
Apogee alt
483.9 km
Semi-major
6,861.1 km
B*
1.8244e-4
RAAN
25.3976°
Arg perigee
237.7436°
Mean anomaly
122.3284°
Rev number
16,216

§ Raw data

STARLINK-62291 57093U 23088AX  26144.94716520  .00004764  00000+0  18244-3 0  99982 57093  43.0020  25.3976 0001361 237.7436 122.3284 15.27595396162160

JSON: /api/v1/satellites/57093 · /tle

For live sub-satellite position, see the globe view (requires WebGL).

§ Visibility from observer

Set your observer location to see the next 7 days of passes ≥ 10°. The values pass through the URL so the page stays shareable.

No JS? Fill the form by hand. The geolocation button needs JavaScript.